DW0416 Weather Reports


time (UTC)temp
C
wind
direction
speed
KPH
gust
KPH
rain 1hr
cm
rain 24hr
cm
rain mn
cm
humidity
%
barometer
mb
20260904023020 18 41 4.8 8.0 0.00 0.00 0.00 29 1015.8
20260904021531 17 122 1.6 4.8 0.00 0.00 0.00 31 1015.9
20260904020031 18 113 0.0 1.6 0.00 0.00 0.00 31 1015.8
20260904014532 20 14 1.6 6.4 0.00 0.00 0.00 34 1015.9
20260904013017 21 109 0.0 3.2 0.00 0.00 0.00 25 1015.6
20260904011533 22 162 0.0 1.6 0.00 0.00 0.00 23 1015.6
20260904010040 21 281 0.0 4.8 0.00 0.00 0.00 25 1015.6
20260904004531 22 121 0.0 3.2 0.00 0.00 0.00 25 1015.6
20260904003033 22 190 0.0 4.8 0.00 0.00 0.00 25 1015.7
20260904001531 22 175 4.8 9.7 0.00 0.00 0.00 23 1015.6
20260904000032 22 142 3.2 12.9 0.00 0.00 0.00 23 1015.6
20260903234534 22 107 6.4 11.3 0.00 0.00 0.00 24 1015.7
20260903233033 22 141 4.8 14.5 0.00 0.00 0.00 24 1015.8
20260903231530 23 140 9.7 19.3 0.00 0.00 0.00 22 1015.9
20260903230025 23 170 6.4 12.9 0.00 0.00 0.00 23 1016.1
20260903224508 22 227 6.4 14.5 0.00 0.00 0.00 22 1016.3
20260903223014 21 221 6.4 11.3 0.00 0.00 0.00 25 1016.5
20260903221532 21 219 8.0 16.1 0.00 0.00 0.00 23 1016.7
20260903220040 22 137 8.0 20.9 0.00 0.00 0.00 24 1016.8
20260903214535 21 169 4.8 24.1 0.00 0.00 0.00 26 1016.9
20260903213012 22 165 4.8 16.1 0.00 0.00 0.00 25 1017.1
20260903211519 22 109 6.4 17.7 0.00 0.00 0.00 23 1017.1
20260903210031 21 151 6.4 14.5 0.00 0.00 0.00 26 1017.3
20260903204527 22 94 6.4 12.9 0.00 0.00 0.00 23 1017.4
20260903203028 21 92 12.9 25.7 0.00 0.00 0.00 25 1017.5
20260903201510 21 200 6.4 19.3 0.00 0.00 0.00 25 1017.7
20260903200018 21 117 9.7 19.3 0.00 0.00 0.00 25 1017.8
20260903194532 21 132 6.4 14.5 0.00 0.00 0.00 24 1017.9
20260903193023 21 217 9.7 19.3 0.00 0.00 0.00 22 1018.1
20260903191534 20 114 6.4 20.9 0.00 0.00 0.00 25 1018.3
20260903190008 20 160 6.4 19.3 0.00 0.00 0.00 25 1018.2
20260903184514 21 226 6.4 22.5 0.00 0.00 0.00 23 1018.1
20260903183028 21 155 8.0 22.5 0.00 0.00 0.00 24 1018.2
20260903181531 20 190 4.8 14.5 0.00 0.00 0.00 26 1018.3
20260903180029 18 184 1.6 12.9 0.00 0.00 0.00 29 1018.6
20260903174536 17 102 4.8 14.5 0.00 0.00 0.00 29 1018.7
20260903173025 17 152 11.3 16.1 0.00 0.00 0.00 28 1018.9
20260903171522 17 114 3.2 12.9 0.00 0.00 0.00 28 1019.1
20260903170040 17 141 3.2 16.1 0.00 0.00 0.00 31 1019.1
20260903164541 17 87 1.6 6.4 0.00 0.00 0.00 31 1019.1
20260903163013 17 214 3.2 6.4 0.00 0.00 0.00 34 1019.2
20260903161528 16 117 1.6 6.4 0.00 0.00 0.00 41 1019.2
20260903160030 15 233 1.6 4.8 0.00 0.00 0.00 47 1019.3
20260903154532 14 197 1.6 8.0 0.00 0.00 0.00 47 1019.4
20260903153041 13 179 3.2 9.7 0.00 0.00 0.00 47 1019.5
20260903151515 13 116 3.2 6.4 0.00 0.00 0.00 44 1019.3
20260903150028 11 155 4.8 9.7 0.00 0.00 0.00 44 1019.3
20260903144533 10 86 8.0 11.3 0.00 0.00 0.00 49 1019.4
20260903143033 9 91 4.8 8.0 0.00 0.00 0.00 52 1019.3
20260903141535 8 117 1.6 4.8 0.00 0.00 0.00 57 1019.4
20260903140015 9 150 3.2 4.8 0.00 0.00 0.00 54 1019.3
20260903134529 8 77 1.6 4.8 0.00 0.00 0.00 55 1019.0
20260903133029 8 84 0.0 3.2 0.00 0.00 0.00 60 1018.9
20260903131512 8 135 0.0 3.2 0.00 0.00 0.00 63 1018.7
20260903130012 8 69 0.0 3.2 0.00 0.00 0.00 59 1018.5
20260903124524 8 139 0.0 4.8 0.00 0.00 0.00 57 1018.4
20260903123030 8 157 0.0 0.0 0.00 0.00 0.00 63 1018.5
20260903121538 8 99 0.0 0.0 0.00 0.00 0.00 51 1018.4
20260903120024 9 136 0.0 0.0 0.00 0.00 0.00 52 1017.9
20260903114516 9 133 0.0 3.2 0.00 0.00 0.00 54 1017.9
20260903113025 8 145 0.0 3.2 0.00 0.00 0.00 60 1017.9
20260903111554 9 124 0.0 0.0 0.00 0.00 0.00 60 1017.9
20260903110030 9 186 0.0 0.0 0.00 0.00 0.00 55 1017.9
20260903104527 10 287 0.0 1.6 0.00 0.00 0.00 54 1017.8
20260903103028 11 30 3.2 11.3 0.00 0.00 0.00 42 1017.5
20260903101528 9 80 0.0 0.0 0.00 0.00 0.00 60 1017.6
20260903100033 10 96 0.0 0.0 0.00 0.00 0.00 55 1017.3
20260903094532 10 137 0.0 0.0 0.00 0.00 0.00 53 1017.3
20260903093034 11 205 0.0 1.6 0.00 0.00 0.00 56 1016.8
20260903091531 11 71 0.0 4.8 0.00 0.00 0.00 44 1016.9
20260903090034 10 146 0.0 1.6 0.00 0.00 0.00 58 1017.4
20260903084537 10 150 0.0 3.2 0.00 0.00 0.00 56 1017.4
20260903083033 11 144 0.0 1.6 0.00 0.00 0.00 58 1017.3
20260903081515 11 158 0.0 4.8 0.00 0.03 0.00 58 1017.1
20260903080029 11 51 1.6 6.4 0.00 0.03 0.00 57 1017.2
20260903074531 11 217 0.0 0.0 0.00 0.03 0.00 54 1017.6
20260903073040 11 217 0.0 1.6 0.00 0.03 0.00 49 1017.7
20260903071530 12 120 0.0 1.6 0.00 0.03 0.00 41 1017.5
20260903070036 12 155 0.0 8.0 0.00 0.03 0.00 51 1017.9
20260903064527 13 50 1.6 6.4 0.00 0.03 0.00 41 1017.5
20260903063033 14 79 6.4 9.7 0.00 0.03 0.00 32 1017.9
20260903061551 13 39 3.2 11.3 0.00 0.03 0.00 42 1017.9
20260903060034 14 85 3.2 6.4 0.00 0.03 0.00 36 1017.5
20260903054534 14 266 1.6 19.3 0.00 0.03 0.03 34 1017.3
20260903053027 13 41 8.0 9.7 0.00 0.03 0.03 39 1017.3
20260903051532 13 57 0.0 4.8 0.00 0.03 0.03 40 1017.4
20260903050025 13 148 0.0 1.6 0.00 0.03 0.03 41 1017.0
20260903044526 14 153 0.0 4.8 0.00 0.03 0.03 41 1017.0
20260903043029 15 88 0.0 4.8 0.00 0.03 0.03 33 1017.2
20260903041520 15 114 0.0 0.0 0.00 0.03 0.03 33 1017.2
20260903040021 15 49 0.0 3.2 0.00 0.03 0.03 30 1017.1
20260903034518 16 68 0.0 11.3 0.00 0.03 0.03 28 1017.3
20260903033023 16 18 1.6 8.0 0.00 0.03 0.03 29 1017.3
20260903031532 16 34 8.0 12.9 0.00 0.03 0.03 29 1017.5
20260903030007 16 51 0.0 4.8 0.00 0.03 0.03 30 1017.7
20260903024512 17 34 1.6 11.3 0.00 0.05 0.03 28 1017.5